This is the latest recevied weather packets stored in our database for station/object WA9SDJ-13. If no packets are shown the sender has not sent any weather packets the latest 1 day(s).
| Time | Temp. | Humidity | Pressure | Rain* | Wind** | Luminosity | Snow |
|---|---|---|---|---|---|---|---|
| 1778108468 | 14.44° C | 51% | 1013.9 hPa | 0 mm | - | 67 W/m² | - |
| 1778107988 | 15° C | 50% | 1013.9 hPa | 0 mm | - | 106 W/m² | - |
| 1778107928 | 15° C | 52% | 1013.9 hPa | 0 mm | - | 106 W/m² | - |
| 1778107868 | 15° C | 51% | 1013.9 hPa | 0 mm | - | 120 W/m² | - |
| 1778107808 | 15° C | 50% | 1013.9 hPa | 0 mm | - | 104 W/m² | - |
| 1778107328 | 14.44° C | 48% | 1013.9 hPa | 0 mm | - | 134 W/m² | - |
| 1778106848 | 15° C | 52% | 1013.8 hPa | 0 mm | - | 65 W/m² | - |
| 1778106247 | 15° C | 49% | 1013.9 hPa | 0 mm | - | 83 W/m² | - |
| 1778106188 | 15° C | 53% | 1013.9 hPa | 0 mm | - | 77 W/m² | - |
| 1778106128 | 15° C | 49% | 1014 hPa | 0 mm | - | 77 W/m² | - |
| 1778105767 | 15° C | 50% | 1013.9 hPa | 0 mm | - | 97 W/m² | - |
| 1778105167 | 15.56° C | 47% | 1013.9 hPa | 0 mm | - | 135 W/m² | - |
| 1778105107 | 15.56° C | 47% | 1013.9 hPa | 0 mm | - | 113 W/m² | - |
| 1778104747 | 15° C | 48% | 1014 hPa | 0 mm | - | 322 W/m² | - |
| 1778104327 | 15.56° C | 48% | 1014 hPa | 0 mm | - | 134 W/m² | - |
| 1778104027 | 15.56° C | 47% | 1014.1 hPa | 0 mm | - | 111 W/m² | - |
| 1778102946 | 15.56° C | 50% | 1014 hPa | 0 mm | - | 230 W/m² | - |
| 1778102766 | 15.56° C | 48% | 1014.1 hPa | 0 mm | - | 681 W/m² | - |
| 1778102346 | 15.56° C | 46% | 1014 hPa | 0 mm | - | 732 W/m² | - |
| 1778102286 | 15.56° C | 46% | 1014 hPa | 0 mm | - | 471 W/m² | - |
| 1778102226 | 16.11° C | 46% | 1014 hPa | 0 mm | - | 172 W/m² | - |
| 1778102166 | 16.11° C | 50% | 1013.9 hPa | 0 mm | - | 137 W/m² | - |
| 1778102106 | 16.11° C | 52% | 1013.9 hPa | 0 mm | - | 95 W/m² | - |
| 1778102046 | 16.11° C | 50% | 1013.9 hPa | 0 mm | - | 403 W/m² | - |
| 1778101926 | 16.11° C | 48% | 1013.9 hPa | 0 mm | - | 719 W/m² | - |
* Rain latest hour (hover to see other rain measurements)
** Current wind speed in m/s (hover to see current wind gust speed)